Time,TemperatureF,DewpointF,PressureIn,WindDirection,WindDirectionDegrees,WindSpeedMPH,WindSpeedGustMPH,Humidity,HourlyPrecipIn,Conditions,Clouds,dailyrainin,SoftwareType,DateUTC
2013-01-28 00:01:00,39.0,38.0,30.00,South,187,1.0,-999.0,97,-99.99,,,-99.99,,2013-01-28 08:01:00,
2013-01-28 00:11:00,39.0,38.0,30.00,South,187,1.0,-999.0,97,-99.99,,,-99.99,,2013-01-28 08:11:00,
2013-01-28 00:21:00,39.0,38.0,30.00,South,178,1.0,-999.0,97,-99.99,,,-99.99,,2013-01-28 08:21:00,
2013-01-28 00:31:00,39.0,38.0,30.01,South,190,0.0,-999.0,97,-99.99,,,-99.99,,2013-01-28 08:31:00,
2013-01-28 00:41:00,39.0,38.0,30.01,South,190,0.0,-999.0,97,-99.99,,,-99.99,,2013-01-28 08:41:00,
2013-01-28 00:52:00,39.0,38.0,30.01,South,188,0.0,-999.0,97,-99.99,,,-99.99,,2013-01-28 08:52:00,
2013-01-28 01:01:00,39.0,38.0,30.01,South,189,0.0,-999.0,97,-99.99,,,-99.99,,2013-01-28 09:01:00,
2013-01-28 01:11:00,39.0,38.0,30.01,South,189,0.0,-999.0,97,-99.99,,,-99.99,,2013-01-28 09:11:00,
2013-01-28 01:21:00,39.0,38.0,30.01,South,189,0.0,-999.0,97,-99.99,,,-99.99,,2013-01-28 09:21:00,
2013-01-28 01:32:00,39.0,38.0,30.01,South,189,0.0,-999.0,97,-99.99,,,-99.99,,2013-01-28 09:32:00,
2013-01-28 01:41:00,39.0,38.0,30.01,South,189,0.0,-999.0,97,-99.99,,,-99.99,,2013-01-28 09:41:00,
2013-01-28 01:51:00,39.0,38.0,30.01,SSW,199,1.0,-999.0,97,-99.99,,,-99.99,,2013-01-28 09:51:00,
2013-01-28 02:01:00,39.0,38.0,30.01,South,188,0.0,-999.0,97,-99.99,,,-99.99,,2013-01-28 10:01:00,
2013-01-28 02:11:00,39.0,38.0,30.01,South,188,0.0,-999.0,97,-99.99,,,-99.99,,2013-01-28 10:11:00,
2013-01-28 02:21:00,39.0,38.0,30.01,South,176,2.0,-999.0,97,-99.99,,,-99.99,,2013-01-28 10:21:00,
2013-01-28 02:31:00,39.0,38.0,30.01,South,191,1.0,-999.0,97,-99.99,,,-99.99,,2013-01-28 10:31:00,
2013-01-28 02:41:00,39.0,38.0,30.01,South,191,1.0,-999.0,97,-99.99,,,-99.99,,2013-01-28 10:41:00,
2013-01-28 02:51:00,38.0,37.0,30.02,SE,132,0.0,-999.0,97,-99.99,,,-99.99,,2013-01-28 10:51:00,
2013-01-28 03:01:00,38.0,37.0,30.02,SE,144,0.0,-999.0,97,-99.99,,,-99.99,,2013-01-28 11:01:00,
2013-01-28 03:11:00,38.0,37.0,30.02,SE,144,0.0,-999.0,97,-99.99,,,-99.99,,2013-01-28 11:11:00,
2013-01-28 03:21:00,38.0,37.0,30.03,SE,144,0.0,-999.0,97,-99.99,,,-99.99,,2013-01-28 11:21:00,
2013-01-28 03:32:00,38.0,37.0,30.02,SSE,159,1.0,-999.0,97,-99.99,,,-99.99,,2013-01-28 11:32:00,
2013-01-28 03:41:00,38.0,37.0,30.02,SSE,159,1.0,-999.0,97,-99.99,,,-99.99,,2013-01-28 11:41:00,
2013-01-28 03:52:00,38.0,37.0,30.03,South,187,0.0,-999.0,97,-99.99,,,-99.99,,2013-01-28 11:52:00,
2013-01-28 04:03:00,38.0,37.0,30.03,South,188,0.0,-999.0,97,-99.99,,,-99.99,,2013-01-28 12:03:00,
2013-01-28 04:11:00,38.0,37.0,30.03,South,188,0.0,-999.0,97,-99.99,,,-99.99,,2013-01-28 12:11:00,
2013-01-28 04:22:00,38.0,37.0,30.03,South,175,2.0,-999.0,97,-99.99,,,-99.99,,2013-01-28 12:22:00,
2013-01-28 04:32:00,38.0,37.0,30.04,South,175,0.0,-999.0,97,-99.99,,,-99.99,,2013-01-28 12:32:00,
2013-01-28 04:42:00,38.0,37.0,30.04,South,175,0.0,-999.0,97,-99.99,,,-99.99,,2013-01-28 12:42:00,
2013-01-28 04:52:00,38.0,37.0,30.04,South,175,0.0,-999.0,97,-99.99,,,-99.99,,2013-01-28 12:52:00,
2013-01-28 05:02:00,38.0,37.0,30.04,South,188,1.0,-999.0,97,-99.99,,,-99.99,,2013-01-28 13:02:00,
2013-01-28 05:11:00,38.0,37.0,30.04,South,188,1.0,-999.0,97,-99.99,,,-99.99,,2013-01-28 13:11:00,
2013-01-28 05:22:00,38.0,37.0,30.04,SSE,164,0.0,-999.0,97,-99.99,,,-99.99,,2013-01-28 13:22:00,
2013-01-28 05:32:00,38.0,37.0,30.04,SW,221,0.0,-999.0,97,-99.99,,,-99.99,,2013-01-28 13:32:00,
2013-01-28 05:42:00,38.0,37.0,30.04,SW,221,0.0,-999.0,97,-99.99,,,-99.99,,2013-01-28 13:42:00,
2013-01-28 05:52:00,38.0,37.0,30.04,SSE,167,1.0,-999.0,97,-99.99,,,-99.99,,2013-01-28 13:52:00,
2013-01-28 06:02:00,38.0,37.0,30.04,WSW,249,1.0,-999.0,97,-99.99,,,-99.99,,2013-01-28 14:02:00,
2013-01-28 06:11:00,38.0,37.0,30.04,WSW,249,1.0,-999.0,97,-99.99,,,-99.99,,2013-01-28 14:11:00,
2013-01-28 06:22:00,38.0,37.0,30.05,ESE,114,1.0,-999.0,97,-99.99,,,-99.99,,2013-01-28 14:22:00,
2013-01-28 06:32:00,39.0,38.0,30.05,SSE,158,2.0,-999.0,97,-99.99,,,-99.99,,2013-01-28 14:32:00,
2013-01-28 06:42:00,39.0,38.0,30.05,SSE,158,2.0,-999.0,97,-99.99,,,-99.99,,2013-01-28 14:42:00,
2013-01-28 06:52:00,39.0,38.0,30.04,South,172,3.0,-999.0,97,-99.99,,,-99.99,,2013-01-28 14:52:00,
2013-01-28 07:02:00,38.0,37.0,30.05,SSE,168,0.0,-999.0,97,-99.99,,,-99.99,,2013-01-28 15:02:00,
2013-01-28 07:11:00,38.0,37.0,30.05,SSE,168,0.0,-999.0,97,-99.99,,,-99.99,,2013-01-28 15:11:00,
2013-01-28 07:22:00,38.0,37.0,30.06,SW,230,0.0,-999.0,97,-99.99,,,-99.99,,2013-01-28 15:22:00,
2013-01-28 07:32:00,38.0,37.0,30.06,SSW,203,0.0,-999.0,97,-99.99,,,-99.99,,2013-01-28 15:32:00,
2013-01-28 07:42:00,38.0,37.0,30.06,SSW,203,0.0,-999.0,97,-99.99,,,-99.99,,2013-01-28 15:42:00,
2013-01-28 07:52:00,38.0,37.0,30.06,WSW,239,0.0,-999.0,97,-99.99,,,-99.99,,2013-01-28 15:52:00,
2013-01-28 08:03:00,38.0,37.0,30.06,West,267,0.0,-999.0,97,-99.99,,,-99.99,,2013-01-28 16:03:00,
2013-01-28 08:12:00,38.0,37.0,30.06,West,267,0.0,-999.0,97,-99.99,,,-99.99,,2013-01-28 16:12:00,
2013-01-28 08:21:00,38.0,37.0,30.06,SE,146,2.0,-999.0,97,-99.99,,,-99.99,,2013-01-28 16:21:00,
2013-01-28 08:32:00,39.0,38.0,30.06,SSE,150,1.0,-999.0,97,-99.99,,,-99.99,,2013-01-28 16:32:00,
2013-01-28 08:42:00,39.0,38.0,30.06,SSE,150,1.0,-999.0,97,-99.99,,,-99.99,,2013-01-28 16:42:00,
2013-01-28 08:52:00,39.0,38.0,30.07,South,188,1.0,-999.0,97,-99.99,,,-99.99,,2013-01-28 16:52:00,
2013-01-28 09:01:00,39.0,38.0,30.06,South,190,1.0,-999.0,97,-99.99,,,-99.99,,2013-01-28 17:01:00,
2013-01-28 09:11:00,39.0,38.0,30.06,South,190,1.0,-999.0,97,-99.99,,,-99.99,,2013-01-28 17:11:00,
2013-01-28 09:22:00,39.0,38.0,30.06,SSW,202,1.0,-999.0,97,-99.99,,,-99.99,,2013-01-28 17:22:00,
2013-01-28 09:32:00,39.0,38.0,30.06,South,182,1.0,-999.0,97,-99.99,,,-99.99,,2013-01-28 17:32:00,
2013-01-28 09:41:00,39.0,38.0,30.06,South,182,1.0,-999.0,97,-99.99,,,-99.99,,2013-01-28 17:41:00,
2013-01-28 09:52:00,39.0,38.0,30.06,South,179,1.0,-999.0,97,-99.99,,,-99.99,,2013-01-28 17:52:00,
2013-01-28 10:02:00,39.0,38.0,30.06,South,179,1.0,-999.0,97,-99.99,,,-99.99,,2013-01-28 18:02:00,
2013-01-28 10:12:00,39.0,38.0,30.06,South,179,1.0,-999.0,97,-99.99,,,-99.99,,2013-01-28 18:12:00,
2013-01-28 10:22:00,39.0,38.0,30.06,SSW,199,2.0,-999.0,97,-99.99,,,-99.99,,2013-01-28 18:22:00,
2013-01-28 10:33:00,39.0,38.0,30.07,South,176,1.0,-999.0,97,-99.99,,,-99.99,,2013-01-28 18:33:00,
2013-01-28 10:42:00,39.0,38.0,30.07,South,176,1.0,-999.0,97,-99.99,,,-99.99,,2013-01-28 18:42:00,
2013-01-28 10:52:00,39.0,38.0,30.07,SSE,152,2.0,-999.0,97,-99.99,,,-99.99,,2013-01-28 18:52:00,
2013-01-28 11:01:00,39.0,38.0,30.07,SW,234,1.0,-999.0,97,-99.99,,,-99.99,,2013-01-28 19:01:00,
2013-01-28 11:11:00,39.0,38.0,30.07,SW,234,1.0,-999.0,97,-99.99,,,-99.99,,2013-01-28 19:11:00,
2013-01-28 11:21:00,40.0,39.0,30.07,SSE,151,1.0,-999.0,97,-99.99,,,-99.99,,2013-01-28 19:21:00,
2013-01-28 11:32:00,40.0,39.0,30.07,South,173,1.0,-999.0,97,-99.99,,,-99.99,,2013-01-28 19:32:00,
2013-01-28 11:42:00,40.0,39.0,30.07,South,173,1.0,-999.0,97,-99.99,,,-99.99,,2013-01-28 19:42:00,
2013-01-28 11:52:00,40.0,39.0,30.07,South,175,1.0,-999.0,97,-99.99,,,-99.99,,2013-01-28 19:52:00,
2013-01-28 12:02:00,40.0,39.0,30.07,South,190,1.0,-999.0,97,-99.99,,,-99.99,,2013-01-28 20:02:00,
2013-01-28 12:11:00,40.0,39.0,30.07,South,190,1.0,-999.0,97,-99.99,,,-99.99,,2013-01-28 20:11:00,
2013-01-28 12:21:00,40.0,39.0,30.06,SSE,168,0.0,-999.0,97,-99.99,,,-99.99,,2013-01-28 20:21:00,
2013-01-28 12:32:00,40.0,39.0,30.06,South,184,1.0,-999.0,97,-99.99,,,-99.99,,2013-01-28 20:32:00,
2013-01-28 12:42:00,40.0,39.0,30.06,South,184,1.0,-999.0,97,-99.99,,,-99.99,,2013-01-28 20:42:00,
2013-01-28 12:52:00,40.0,39.0,30.06,SSE,161,2.0,-999.0,97,-99.99,,,-99.99,,2013-01-28 20:52:00,
2013-01-28 13:02:00,40.0,39.0,30.06,SSE,165,2.0,-999.0,97,-99.99,,,-99.99,,2013-01-28 21:02:00,
2013-01-28 13:11:00,40.0,39.0,30.06,SSE,165,2.0,-999.0,97,-99.99,,,-99.99,,2013-01-28 21:11:00,
2013-01-28 13:22:00,40.0,39.0,30.05,SSE,163,2.0,-999.0,97,-99.99,,,-99.99,,2013-01-28 21:22:00,
2013-01-28 13:33:00,40.0,39.0,30.05,SSE,163,2.0,-999.0,97,-99.99,,,-99.99,,2013-01-28 21:33:00,
2013-01-28 13:42:00,40.0,39.0,30.05,SSE,163,2.0,-999.0,97,-99.99,,,-99.99,,2013-01-28 21:42:00,
2013-01-28 13:52:00,40.0,39.0,30.05,SSW,213,2.0,-999.0,97,-99.99,,,-99.99,,2013-01-28 21:52:00,
2013-01-28 14:01:00,40.0,39.0,30.05,South,188,1.0,-999.0,97,-99.99,,,-99.99,,2013-01-28 22:01:00,
2013-01-28 14:11:00,40.0,39.0,30.05,South,188,1.0,-999.0,97,-99.99,,,-99.99,,2013-01-28 22:11:00,
2013-01-28 14:22:00,40.0,39.0,30.04,SE,146,1.0,-999.0,97,-99.99,,,-99.99,,2013-01-28 22:22:00,
2013-01-28 14:32:00,40.0,39.0,30.03,South,187,1.0,-999.0,97,-99.99,,,-99.99,,2013-01-28 22:32:00,
2013-01-28 14:42:00,40.0,39.0,30.03,South,187,1.0,-999.0,97,-99.99,,,-99.99,,2013-01-28 22:42:00,
2013-01-28 14:52:00,40.0,39.0,30.03,SSE,166,1.0,-999.0,97,-99.99,,,-99.99,,2013-01-28 22:52:00,
2013-01-28 15:01:00,40.0,39.0,30.02,SSE,164,1.0,-999.0,97,-99.99,,,-99.99,,2013-01-28 23:01:00,
2013-01-28 15:11:00,40.0,39.0,30.02,SSE,164,1.0,-999.0,97,-99.99,,,-99.99,,2013-01-28 23:11:00,
2013-01-28 15:22:00,40.0,39.0,30.02,SSE,166,1.0,-999.0,97,-99.99,,,-99.99,,2013-01-28 23:22:00,
2013-01-28 15:32:00,41.0,40.0,30.03,SSE,163,1.0,-999.0,97,-99.99,,,-99.99,,2013-01-28 23:32:00,
2013-01-28 15:41:00,41.0,40.0,30.03,SSE,163,1.0,-999.0,97,-99.99,,,-99.99,,2013-01-28 23:41:00,
2013-01-28 15:52:00,41.0,40.0,30.03,SSE,165,1.0,-999.0,97,-99.99,,,-99.99,,2013-01-28 23:52:00,
2013-01-28 16:02:00,41.0,40.0,30.03,South,172,2.0,-999.0,97,-99.99,,,-99.99,,2013-01-29 00:02:00,
2013-01-28 16:11:00,41.0,40.0,30.03,South,172,2.0,-999.0,97,-99.99,,,-99.99,,2013-01-29 00:11:00,
2013-01-28 16:21:00,41.0,40.0,30.02,SSE,161,1.0,-999.0,97,-99.99,,,-99.99,,2013-01-29 00:21:00,
2013-01-28 16:32:00,41.0,40.0,30.02,SSE,156,1.0,-999.0,97,-99.99,,,-99.99,,2013-01-29 00:32:00,
2013-01-28 16:41:00,41.0,40.0,30.02,SSE,156,1.0,-999.0,97,-99.99,,,-99.99,,2013-01-29 00:41:00,
2013-01-28 16:52:00,41.0,40.0,30.02,SSW,205,1.0,-999.0,97,-99.99,,,-99.99,,2013-01-29 00:52:00,
2013-01-28 17:01:00,41.0,40.0,30.03,South,179,0.0,-999.0,97,-99.99,,,-99.99,,2013-01-29 01:01:00,
2013-01-28 17:11:00,41.0,40.0,30.03,South,179,0.0,-999.0,97,-99.99,,,-99.99,,2013-01-29 01:11:00,
2013-01-28 17:22:00,41.0,40.0,30.03,South,180,1.0,-999.0,97,-99.99,,,-99.99,,2013-01-29 01:22:00,
2013-01-28 17:32:00,41.0,40.0,30.03,South,180,1.0,-999.0,97,-99.99,,,-99.99,,2013-01-29 01:32:00,
2013-01-28 17:41:00,41.0,40.0,30.03,South,180,1.0,-999.0,97,-99.99,,,-99.99,,2013-01-29 01:41:00,
2013-01-28 17:52:00,41.0,40.0,30.03,South,180,1.0,-999.0,97,-99.99,,,-99.99,,2013-01-29 01:52:00,
2013-01-28 18:02:00,41.0,40.0,30.03,South,186,1.0,-999.0,97,-99.99,,,-99.99,,2013-01-29 02:02:00,
2013-01-28 18:11:00,41.0,40.0,30.03,South,186,1.0,-999.0,97,-99.99,,,-99.99,,2013-01-29 02:11:00,
2013-01-28 18:21:00,41.0,40.0,30.03,South,186,1.0,-999.0,97,-99.99,,,-99.99,,2013-01-29 02:21:00,
2013-01-28 18:32:00,41.0,40.0,30.03,South,183,1.0,-999.0,97,-99.99,,,-99.99,,2013-01-29 02:32:00,
2013-01-28 18:41:00,41.0,40.0,30.03,South,183,1.0,-999.0,97,-99.99,,,-99.99,,2013-01-29 02:41:00,
2013-01-28 18:53:00,41.0,40.0,30.04,South,177,1.0,-999.0,97,-99.99,,,-99.99,,2013-01-29 02:53:00,
2013-01-28 19:02:00,41.0,40.0,30.03,South,180,2.0,-999.0,97,-99.99,,,-99.99,,2013-01-29 03:02:00,
2013-01-28 19:11:00,41.0,40.0,30.03,South,180,2.0,-999.0,97,-99.99,,,-99.99,,2013-01-29 03:11:00,
2013-01-28 19:21:00,41.0,40.0,30.03,SSW,192,1.0,-999.0,97,-99.99,,,-99.99,,2013-01-29 03:21:00,
2013-01-28 19:31:00,41.0,40.0,30.03,SSW,195,1.0,-999.0,97,-99.99,,,-99.99,,2013-01-29 03:31:00,
2013-01-28 19:41:00,41.0,40.0,30.03,SSW,195,1.0,-999.0,97,-99.99,,,-99.99,,2013-01-29 03:41:00,
2013-01-28 19:52:00,41.0,40.0,30.03,SSE,162,1.0,-999.0,97,-99.99,,,-99.99,,2013-01-29 03:52:00,
2013-01-28 20:01:00,41.0,40.0,30.03,South,182,2.0,-999.0,97,-99.99,,,-99.99,,2013-01-29 04:01:00,
2013-01-28 20:11:00,41.0,40.0,30.03,South,182,2.0,-999.0,97,-99.99,,,-99.99,,2013-01-29 04:11:00,
2013-01-28 20:21:00,41.0,40.0,30.03,South,172,2.0,-999.0,97,-99.99,,,-99.99,,2013-01-29 04:21:00,
2013-01-28 20:32:00,41.0,40.0,30.03,SSE,167,2.0,-999.0,97,-99.99,,,-99.99,,2013-01-29 04:32:00,
2013-01-28 20:41:00,41.0,40.0,30.03,SSE,167,2.0,-999.0,97,-99.99,,,-99.99,,2013-01-29 04:41:00,
2013-01-28 20:51:00,41.0,40.0,30.03,South,175,2.0,-999.0,97,-99.99,,,-99.99,,2013-01-29 04:51:00,
2013-01-28 21:03:00,41.0,40.0,30.04,South,185,1.0,-999.0,97,-99.99,,,-99.99,,2013-01-29 05:03:00,
2013-01-28 21:12:00,41.0,40.0,30.04,South,185,1.0,-999.0,97,-99.99,,,-99.99,,2013-01-29 05:12:00,
2013-01-28 21:21:00,41.0,40.0,30.05,SSE,165,2.0,-999.0,97,-99.99,,,-99.99,,2013-01-29 05:21:00,
2013-01-28 21:32:00,41.0,40.0,30.05,SSE,165,2.0,-999.0,97,-99.99,,,-99.99,,2013-01-29 05:32:00,
2013-01-28 21:42:00,41.0,40.0,30.05,SSE,165,2.0,-999.0,97,-99.99,,,-99.99,,2013-01-29 05:42:00,
2013-01-28 21:52:00,41.0,40.0,30.05,South,175,1.0,-999.0,97,-99.99,,,-99.99,,2013-01-29 05:52:00,
2013-01-28 22:01:00,41.0,40.0,30.05,South,178,1.0,-999.0,97,-99.99,,,-99.99,,2013-01-29 06:01:00,
2013-01-28 22:11:00,41.0,40.0,30.05,South,178,1.0,-999.0,97,-99.99,,,-99.99,,2013-01-29 06:11:00,
2013-01-28 22:21:00,41.0,40.0,30.06,South,173,1.0,-999.0,97,-99.99,,,-99.99,,2013-01-29 06:21:00,
2013-01-28 22:31:00,41.0,40.0,30.06,South,171,1.0,-999.0,97,-99.99,,,-99.99,,2013-01-29 06:31:00,
2013-01-28 22:41:00,41.0,40.0,30.06,South,171,1.0,-999.0,97,-99.99,,,-99.99,,2013-01-29 06:41:00,
2013-01-28 22:52:00,41.0,40.0,30.06,South,188,1.0,-999.0,97,-99.99,,,-99.99,,2013-01-29 06:52:00,
2013-01-28 23:01:00,41.0,40.0,30.07,SSW,197,2.0,-999.0,97,-99.99,,,-99.99,,2013-01-29 07:01:00,
2013-01-28 23:11:00,41.0,40.0,30.07,SSW,197,2.0,-999.0,97,-99.99,,,-99.99,,2013-01-29 07:11:00,
2013-01-28 23:21:00,41.0,40.0,30.07,South,178,1.0,-999.0,97,-99.99,,,-99.99,,2013-01-29 07:21:00,
2013-01-28 23:31:00,41.0,40.0,30.07,South,188,2.0,-999.0,97,-99.99,,,-99.99,,2013-01-29 07:31:00,
2013-01-28 23:41:00,41.0,40.0,30.07,South,188,2.0,-999.0,97,-99.99,,,-99.99,,2013-01-29 07:41:00,
2013-01-28 23:51:00,41.0,40.0,30.08,South,183,1.0,-999.0,97,-99.99,,,-99.99,,2013-01-29 07:51:00,